Flag for Germany Weather past 2 weeks in Hürth, North Rhine-Westphalia, Germany

Now
55 °F

Fog.


Feels Like: 55 °F
Forecast: 58 / 75 °F
Wind: 3 mph from Southeast

Location: Noervenich

Current Time: Sep 17, 2014 at 7:51:18 AM

Latest Report: Sep 17, 2014 at 7:20 AM


Visibility: 3 mi

Pressure: 29.92 "Hg

Humidity: 94%

Dew point: 54 °F

Location of HürthLocation

Historic Weather in Hürth — Graph

°F

Hürth temperature yesterday

Maximum temperature yesterday: 73 °F (at 2:20 PM)
Minimum temperature yesterday: 55 °F (at 3:20 AM)
Average temperature yesterday: 64 °F

Past Weeks' High & Low Weather Summary

 TemperatureHumidityPressure
High75 °F (Sep 5, 3:20 PM)100% (Sep 3, 1:20 AM)30.24 "Hg (Sep 3, 1:20 AM)
Low46 °F (Sep 12, 6:20 AM)52% (Sep 11, 5:20 PM)29.89 "Hg (Sep 6, 4:20 PM)
Average61 °F81%30.08 "Hg
* Reported Sep 2 6:20 AM — Sep 17 6:20 AM, Hürth, Weather by CustomWeather, © 2014

Note: Actual official high and low records may vary slightly from our data, if they occured in-between our weather recording intervals... More about our weather records

Advertising

Hürth weather history for previous 24 hours

 ConditionsComfort  
Time TempWeatherWind HumidityBarometerVisibility
6:20 AM
Sep 17
55 °FFog.3 mph94%29.92 "Hg4 mi
5:20 AM55 °FCool.2 mph94%29.92 "Hg6 mi
4:20 AM54 °FCool.1 mph100%29.95 "HgN/A
3:20 AM55 °FCool.No wind94%29.95 "HgN/A
2:20 AM55 °FCool.No wind100%29.95 "HgN/A
1:20 AM57 °FCool.2 mph94%29.95 "HgN/A
12:20 AM57 °FPassing clouds.2 mph94%29.95 "HgN/A
11:20 PM
Sep 16
61 °FPassing clouds.2 mph88%29.95 "HgN/A
10:20 PM64 °FPassing clouds.1 mph78%29.95 "HgN/A
9:20 PM64 °FPassing clouds.1 mph78%29.95 "HgN/A
8:20 PM64 °FPassing clouds.1 mph83%29.95 "HgN/A
7:20 PM70 °FPassing clouds.2 mph64%29.95 "HgN/A
6:20 PM73 °FPassing clouds.3 mph57%29.95 "HgN/A
5:20 PM73 °FScattered clouds.3 mph57%29.95 "HgN/A
4:20 PM73 °FScattered clouds.5 mph57%29.95 "HgN/A
3:20 PM73 °FScattered clouds.3 mph53%29.95 "HgN/A
2:20 PM73 °FScattered clouds.5 mph57%29.95 "HgN/A
1:20 PM72 °FScattered clouds.6 mph65%29.98 "HgN/A
12:20 PM70 °FScattered clouds.5 mph69%29.98 "HgN/A
11:20 AM68 °FScattered clouds.3 mph73%29.98 "HgN/A
10:20 AM64 °FScattered clouds.1 mph83%30.01 "HgN/A
9:20 AM61 °FPartly sunny.No wind88%30.01 "Hg6 mi
8:20 AM57 °FPartly sunny.1 mph94%30.01 "Hg6 mi
7:20 AM57 °FPassing clouds.1 mph94%29.98 "Hg6 mi
Weather by CustomWeather, © 2014

See weather overviewHow to use our weather pages